Hourly Data Report for September 13, 2017

All times are specified in Local Standard Time (LST). Add 1 hour to adjust for Daylight Saving Time where and when it is observed.

POINT LEPREAU CS
NEW BRUNSWICK

45°04'23.040" N
66°26'57.090" W
6.00 m
8104201
71699
WPE

Download Data

Hourly Data (September 2017)
Hourly Data Report for September 13, 2017
Temp Definition
°C
Dew Point Temp Definition
°C
Rel Hum Definition
%
Wind Dir Definition
10's deg

Wind Spd Definition
km/h
Visibility Definition
km
Stn Press Definition
kPa
Hmdx Definition


Wind Chill Definition


Weather Definition


TIME
00:00 16.4 12.6 78 32 9   100.58     LegendNANA
01:00 15.7 12.6 82 31 7   100.60     LegendNANA
02:00 14.4 12.6 89 32 8   100.61     LegendNANA
03:00 12.7 12.1 96 30 7   100.61     LegendNANA
04:00 12.7 11.9 95 31 5   100.65     LegendNANA
05:00 12.8 12.2 97 30 7   100.66     LegendNANA
06:00 12.6 12.1 97 28 7   100.72     LegendNANA
07:00 14.8 13.4 91 29 7   100.78     LegendNANA
08:00 16.7 13.9 83 29 9   100.79     LegendNANA
09:00 18.0 14.2 79 29 9   100.82     LegendNANA
10:00 18.8 14.4 76 28 9   100.81     LegendNANA
11:00 20.9 15.2 70 27 9   100.80 25   LegendNANA
12:00 20.4 14.8 70 24 11   100.79     LegendNANA
13:00 20.5 14.7 69 23 13   100.74     LegendNANA
14:00 20.1 15.5 75 21 15   100.71     LegendNANA
15:00 21.2 15.6 70 21 14   100.69 26   LegendNANA
16:00 19.0 14.8 77 23 12   100.68     LegendNANA
17:00 18.2 14.5 79 24 13   100.69     LegendNANA
18:00 17.2 14.0 82 19 12   100.70     LegendNANA
19:00 15.4 13.4 88 27 7   100.73     LegendNANA
20:00 14.4 12.8 91 26 4   100.77     LegendNANA
21:00 13.7 12.4 92 28 4   100.77     LegendNANA
22:00 12.6 12.0 97 25 3   100.74     LegendNANA
23:00 13.9 12.9 94 29 7   100.73     LegendNANA

Notes on Data Quality.

Legend

  • E = Estimated
  • M = Missing
  • NA = Not Available
  • ‡ = Partner data that is not subject to review by the National Climate Archives
Date modified: